Regional Weather Roundup
Issued by NWS

Home | Current Version | Previous Version | Text Only | Print | Product List | Glossary Off
Versions: 1 2 3 4 5 6 7 8 9 10 11 12 13 14 15 16 17 18 19 20 21 22 23 24 25 26 27 28 29 30 31 32 33 34 35 36 37 38 39 40 41 42 43 44 45 46 47 48 49 50

000
ASUS43 KDMX 312207
RWRIA

WEATHER ROUNDUP FOR IOWA
NATIONAL WEATHER SERVICE DES MOINES IA
500 PM CDT SUN AUG 31 2014

NOTE: "FAIR" INDICATES FEW OR NO CLOUDS BELOW 12,000 FEET WITH NO
SIGNIFICANT WEATHER AND/OR OBSTRUCTIONS TO VISIBILITY.

* - THESE STATIONS ARE NOT NWS STATIONS...THUS NOT UNDER NWS
QUALITY CONTROL.  THEY ALSO DO NOT REPORT WEATHER SUCH
AS PRECIPITATION OR FOG.

IAZ001>003-012>014-020>022-031>034-043>046-312300-
   NORTHWEST IOWA

CITY           SKY/WX    TMP DP  RH WIND       PRES   REMARKS
CARROLL *      SUNNY     79  72  78 SE13      29.72F HX  82
CHEROKEE *     CLOUDY    73  72  94 CALM      29.70F
DENISON *      MOSUNNY   79  72  78 SE10      29.67F HX  82
LE MARS *      PTSUNNY   77  70  78 S6        29.69F
ORANGE CITY *  CLOUDY    77  66  69 S6        29.70F
SHELDON *      PTSUNNY   75  70  83 CALM      29.69F
SIOUX CITY     CLOUDY    78  67  68 S10       29.67F HX  80
SPENCER        CLOUDY    73  67  81 S8        29.72F
STORM LAKE *   SUNNY     73  72  94 CALM      29.72F
$$

IAZ055>058-069>071-079>083-090>094-312300-
   SOUTHWEST IOWA

CITY           SKY/WX    TMP DP  RH WIND       PRES   REMARKS
ATLANTIC *     SUNNY     82  73  74 SE13G18   29.70F HX  88
AUDUBON *      SUNNY     82  77  83 SE8       29.73F HX  91
CLARINDA *     SUNNY     86  75  70 SE9G17    29.72F HX  95
COUNCIL BLFS * SUNNY     84  77  79 MISG      29.66F HX  94
CRESTON *      PTSUNNY   81  73  78 SE10      29.77F HX  85
HARLAN  *      PTSUNNY   81  73  78 SE12G20   29.73F HX  85
LAMONI         LGT RAIN  83  73  72 SE9       29.79F HX  89
RED OAK *      SUNNY     84  75  74 SE13G23   29.69F HX  92
SHENANDOAH *   SUNNY     86  75  70 SE13G21   29.68F HX  95
$$

IAZ047>049-059>061-072>074-084-312300-
   CENTRAL IOWA

CITY           SKY/WX    TMP DP  RH WIND       PRES   REMARKS
AMES           CLOUDY    81  74  79 E3        29.77F HX  86
ANKENY *       SUNNY     82  73  74 VRB8      29.77S HX  88
CHARITON *     MOSUNNY   82  73  74 S15       29.79F HX  88
DES MOINES     PTSUNNY   85  73  67 S10       29.76F HX  91
GRINNELL*      PTSUNNY   82  70  65 S12       29.81S HX  86
KNOXVILLE *    MOSUNNY   84  72  65 S12G20    29.78R HX  89
MARSHALLTOWN   CLOUDY    82  73  74 SW3       29.79S HX  87
PELLA *        CLOUDY    84  72  65 S9G17     29.80R HX  89
PERRY *        LGT RAIN  81  73  78 SE8       29.75F HX  85
$$

IAZ004>006-015-016-023>025-035-036-312300-
   NORTH CENTRAL IOWA

CITY           SKY/WX    TMP DP  RH WIND       PRES   REMARKS
ALGONA *       MOSUNNY   72  66  83 S17G29    29.77R
CLARION *      MOSUNNY   73  63  68 SW9G16    29.78F
ESTHERVILLE    TSTM      72  66  81 S14G28    29.72S
FORT DODGE *   CLOUDY    70  64  83 SE3       29.76F
MASON CITY     CLOUDY    81  69  67 S16G26    29.78S HX  84
FOREST CITY *  SUNNY     79  66  65 S18G24    29.76S HX  81
IOWA FALLS *   LGT RAIN  77  70  78 CALM      29.80F
$$

IAZ007>011-017>019-026>030-037>042-050>054-066-312300-
   NORTHEAST IOWA

CITY           SKY/WX    TMP DP  RH WIND       PRES   REMARKS
CEDAR RAPIDS   MOSUNNY   85  73  67 S14G22    29.81F HX  91
CHARLES CITY * SUNNY     82  72  69 S14       29.79S HX  87
CLINTON *      SUNNY     84  70  61 S12       29.89R HX  88
DECORAH *      SUNNY     82  70  65 S8        29.79R HX  86
DUBUQUE        SUNNY     82  67  60 S15       29.84F HX  84
MONTICELLO *   SUNNY     86  72  62 S8G16     29.82F HX  92
OELWEIN *      SUNNY     84  73  70 S13G22    29.81S HX  91
WATERLOO       PTSUNNY   84  71  65 S14       29.78S HX  89
$$

IAZ064-065-067-068-078-312300-
   EAST CENTRAL IOWA

CITY           SKY/WX    TMP DP  RH WIND       PRES   REMARKS
DAVENPORT      SUNNY     85  67  54 S12       29.86S HX  87
IOWA CITY      MOSUNNY   85  72  65 S14G22    29.83F HX  91
MT. PLEASANT * SUNNY     90  68  48 S10       29.85F HX  93
MUSCATINE *    MOSUNNY   90  72  55 S14G20    29.84S HX  96
QUAD CITIES    SUNNY     87  68  52 S8        29.86S HX  90
$$

IAZ062-063-075>077-085>089-095>099-312300-
   SOUTHEAST IOWA

CITY           SKY/WX    TMP DP  RH WIND       PRES   REMARKS
BURLINGTON     LGT RAIN  86  73  65 S7        29.86F HX  93
FAIRFIELD *    SUNNY     86  72  62 S12G17    29.83F HX  92
FORT MADISON * SUNNY     88  73  62 S6        29.87F HX  96
KEOKUK *       SUNNY     88  73  62 S7G14     29.85F HX  96
OSKALOOSA *      N/A     86  73  66 S15       29.81F HX  93
CENTERVILLE *  SUNNY     84  73  70 S8        29.84S HX  91
OTTUMWA        MOSUNNY   85  72  65 S10       29.81F HX  91
WASHINGTON *   SUNNY     84  73  70 S12G18    29.83F HX  91
$$

ABBREVIATIONS USED IN REMARKS
   TC - TEMPERATURES IN CELSIUS
  WCI - WIND CHILL INDEX
   HX - HEAT INDEX
  VSB - VISIBILITY
$$




USA.gov is the U.S. government's official web portal to all federal, state and local government web resources and services.